[[{"header":{"parameterUnit":"m.s-1","parameterCategory":1,"la1":30.2991,"la2":30.254,"lo1":-89.0895,"lo2":-89.0444,"dy":0.0017,"dx":0.0017,"nx":28,"ny":28,"refTime":"2024-10-21T09:00:00:Z","depth":0,"parameterNumber":2,"parameterNumberName":"U-component_of_WINDS"},"data":[0,0,0,0,0,0,0,0,0,0,0,0,0,0,0,0,0,0,0,0,0,0,0,0,0,0,0,0,0,0,0,0,0,0,0,0,0,0,0,0,0,0,0,0,0,0,0,0,0,0,0,0,0,0,0,0,0,0,-2.6531,-2.6531,0,-2.6508,-2.6508,-2.6508,-2.6443,-2.6441,-2.644,-2.6439,-2.6417,-2.6418,-2.6418,0,0,0,0,0,0,0,0,0,0,0,0,0,-2.6521,-2.6521,-2.6531,-2.6531,-2.653,-2.6508,-2.6508,-2.6508,-2.6443,-2.6441,-2.644,-2.6438,-2.6417,-2.6417,-2.6418,0,0,0,0,0,0,0,0,0,0,0,0,0,-2.6515,-2.6522,-2.6531,-2.6495,-2.6492,-2.6508,-2.6508,-2.6508,-2.6443,-2.6441,-2.6439,-2.6437,-2.6416,-2.6417,-2.6419,-2.6468,0,0,-2.6422,-2.6422,0,0,0,0,0,0,0,0,-2.6515,-2.6515,-2.6501,-2.6498,-2.6494,-2.6476,-2.6496,-2.6494,-2.6444,-2.6462,-2.6439,-2.6436,-2.6438,-2.6438,-2.6438,-2.6467,-2.6466,-2.6422,-2.6423,-2.6423,-2.6423,0,0,0,0,0,0,0,-2.6515,-2.6516,-2.6522,-2.6501,-2.6497,-2.6481,-2.6478,-2.6496,-2.6462,-2.646,-2.6455,-2.6454,-2.6436,-2.6437,-2.6437,-2.6466,-2.6422,-2.6423,-2.6424,-2.6424,-2.6537,-2.6539,0,0,0,0,0,0,-2.6521,-2.6516,-2.6523,-2.6521,-2.6499,-2.6483,-2.648,-2.6484,-2.6462,-2.6457,-2.6455,-2.6451,-2.6436,-2.6436,-2.6436,-2.6494,-2.6423,-2.6424,-2.6425,-2.6535,-2.6537,-2.654,0,0,0,0,0,0,-2.6521,-2.6522,-2.6524,-2.6518,-2.6517,-2.6486,-2.6491,-2.6485,-2.6486,-2.6458,-2.6452,-2.6462,-2.6435,-2.6434,-2.6461,-2.6492,-2.6425,-2.6426,-2.6532,-2.6536,-2.6539,-2.661,0,0,0,0,0,0,-2.6521,-2.6522,-2.654,-2.6518,-2.6517,-2.6548,-2.6493,-2.6486,-2.6488,-2.6481,-2.6463,-2.6458,-2.6433,-2.646,-2.6462,-2.6493,-2.6427,-2.6529,-2.6534,-2.6538,-2.6604,-2.6615,-2.6624,0,0,0,0,0,-2.6521,-2.656,-2.6541,-2.6542,-2.6538,-2.655,-2.6549,-2.6519,-2.649,-2.6508,-2.6491,-2.6459,-2.6489,-2.6463,-2.6465,-2.6496,-2.6527,-2.6532,-2.6537,-2.66,-2.6613,-2.6624,0,0,0,0,0,0,-2.6586,-2.6557,-2.6535,-2.6569,-2.6563,-2.6539,-2.656,-2.6533,-2.6535,-2.6529,-2.6492,-2.6488,-2.6521,-2.6511,-2.6483,-2.6545,-2.6503,-2.6509,-2.6549,-2.6562,-2.6571,-2.6573,-2.6428,0,0,0,0,0,-2.6604,-2.6615,-2.659,-2.6622,-2.662,-2.6591,-2.6595,-2.6573,-2.6564,-2.6561,-2.6546,-2.654,-2.6549,-2.6554,-2.656,-2.6603,-2.6599,-2.6626,-2.6636,-2.6644,-2.665,-2.6674,-2.6686,-2.6557,-2.6557,-2.6557,0,0,-2.6642,-2.6628,-2.6637,-2.6635,-2.6627,-2.6641,-2.6589,-2.6605,-2.6615,-2.6564,-2.6588,-2.6577,-2.6569,-2.6604,-2.6619,-2.6597,-2.6685,-2.6651,-2.6658,-2.6659,-2.6681,-2.6693,-2.6704,-2.6561,-2.656,-2.656,0,0,-2.6718,-2.6708,-2.6735,-2.6729,-2.6718,-2.6699,-2.6706,-2.6687,-2.6678,-2.6702,-2.6664,-2.6677,-2.6691,-2.6687,-2.6686,-2.6765,-2.6736,-2.6768,-2.682,-2.6844,-2.6854,-2.6863,-2.6892,-2.6903,-2.6773,-2.6774,-2.6774,0,-2.6767,-2.6785,-2.6752,-2.6771,-2.6772,-2.6727,-2.6755,-2.6751,-2.6743,-2.6745,-2.6721,-2.674,-2.6731,-2.6766,-2.6785,-2.6786,-2.6794,-2.6769,-2.6855,-2.6864,-2.6871,-2.6899,-2.691,-2.6778,-2.6777,-2.6777,-2.6776,0,-2.6846,-2.6859,-2.6882,-2.6877,-2.688,-2.6904,-2.6876,-2.6884,-2.6862,-2.6846,-2.6873,-2.6861,-2.6864,-2.6871,-2.6849,-2.6904,-2.6891,-2.6862,-2.6819,-2.6888,-2.6914,-2.6924,-2.6784,-2.6782,-2.6781,-2.678,0,0,-2.696,-2.6938,-2.6947,-2.6945,-2.6931,-2.6942,-2.6964,-2.6968,-2.6976,-2.6973,-2.6992,-2.7007,-2.6981,-2.6981,-2.6959,-2.698,-2.7045,-2.6948,-2.6947,-2.6967,-2.7107,-2.7129,-2.7142,-2.7026,-2.7028,-2.7029,-2.7108,0,-2.7033,-2.7069,-2.7042,-2.7084,-2.7097,-2.7056,-2.7076,-2.7071,-2.7057,-2.7068,-2.7053,-2.7065,-2.7028,-2.7028,-2.7047,-2.7033,-2.7072,-2.7027,-2.7044,-2.7045,-2.7048,-2.7155,-2.7178,-2.7252,-2.7117,-2.7119,-2.712,0,-2.7122,-2.7124,-2.7167,-2.7153,-2.7158,-2.7176,-2.7179,-2.7189,-2.7183,-2.7172,-2.7174,-2.7147,-2.717,-2.7128,-2.716,-2.713,-2.7136,-2.713,-2.7133,-2.7133,-2.7087,-2.7159,-2.7275,-2.7287,-2.7135,-2.7134,-2.7133,0,-2.7203,-2.7216,-2.7244,-2.7243,-2.7227,-2.7242,-2.7236,-2.7228,-2.7233,-2.7236,-2.7239,-2.7245,-2.7248,-2.7254,-2.723,-2.7202,-2.7266,-2.7222,-2.7259,-2.726,-2.7274,-2.7274,-2.7394,-2.7277,-2.7277,-2.7277,-2.7277,0,-2.7287,-2.7315,-2.728,-2.7298,-2.7329,-2.7299,-2.7331,-2.7321,-2.7315,-2.7331,-2.7296,-2.7312,-2.7279,-2.7293,-2.7274,-2.7305,-2.7306,-2.7299,-2.7294,-2.7303,-2.7304,-2.7306,-2.7301,-2.728,-2.7279,-2.7279,-2.7278,0,-2.7381,-2.7359,-2.7387,-2.7371,-2.7368,-2.7392,-2.7378,-2.7395,-2.738,-2.7401,-2.7404,-2.7381,-2.7395,-2.7373,-2.7383,-2.7371,-2.7415,-2.7401,-2.7416,-2.7413,-2.7452,-2.7449,-2.7578,-2.7594,-2.7467,-2.7468,-2.7469,0,-2.7436,-2.7458,-2.7444,-2.7452,-2.7449,-2.7462,-2.7468,-2.7439,-2.7447,-2.7444,-2.7461,-2.7472,-2.7479,-2.7504,-2.7489,-2.7498,-2.7486,-2.753,-2.7487,-2.7495,-2.7488,-2.7487,-2.749,-2.7539,-2.7541,-2.7542,-2.7543,0,-2.7537,-2.7526,-2.7535,-2.7541,-2.7549,-2.7552,-2.7553,-2.7562,-2.7532,-2.7542,-2.7556,-2.7562,-2.7575,-2.7587,-2.7593,-2.7588,-2.7562,-2.7557,-2.7566,-2.7575,-2.7584,-2.7581,-2.7442,-2.7554,-2.7553,-2.7552,-2.7552,-2.7551,-2.7614,-2.7632,-2.7626,-2.7638,-2.7636,-2.7639,-2.7654,-2.7642,-2.7653,-2.7661,-2.7644,-2.7663,-2.7659,-2.7665,-2.7663,-2.7679,-2.7659,-2.7672,-2.7676,-2.768,-2.7686,-2.7582,-2.768,-2.7679,-2.7679,-2.7679,-2.7679,0,-2.7714,-2.7709,-2.772,-2.7723,-2.7734,-2.7708,-2.7708,-2.7719,-2.7736,-2.7735,-2.7743,-2.7761,-2.7774,-2.7761,-2.7772,-2.7787,-2.7775,-2.7791,-2.7789,-2.7789,-2.7702,-2.7694,-2.78,-2.78,-2.78,-2.78,-2.78,-2.78,-2.7767,-2.7797,-2.7786,-2.7815,-2.781,-2.7828,-2.7831,-2.7834,-2.7833,-2.7854,-2.7865,-2.7856,-2.7852,-2.7862,-2.7873,-2.7869,-2.7875,-2.7896,-2.7888,-2.7807,-2.7795,-2.7784,-2.7775,-2.7897,-2.7897,-2.7973,-2.7974,-2.7974]},{"header":{"parameterUnit":"m.s-1","parameterCategory":1,"la1":30.2991,"la2":30.254,"lo1":-89.0895,"lo2":-89.0444,"dy":0.0017,"dx":0.0017,"nx":28,"ny":28,"refTime":"2024-10-21T09:00:00:Z","depth":0,"parameterNumber":3,"parameterNumberName":"V-component_of_WINDS"},"data":[0,0,0,0,0,0,0,0,0,0,0,0,0,0,0,0,0,0,0,0,0,0,0,0,0,0,0,0,0,0,0,0,0,0,0,0,0,0,0,0,0,0,0,0,0,0,0,0,0,0,0,0,0,0,0,0,0,0,0.9093,0.9093,0,0.9055,0.9054,0.9054,0.9126,0.9128,0.913,0.9133,0.9087,0.9083,0.908,0,0,0,0,0,0,0,0,0,0,0,0,0,0.9225,0.9222,0.9093,0.9093,0.9092,0.9055,0.9054,0.9054,0.9125,0.9128,0.9131,0.9134,0.9088,0.9084,0.908,0,0,0,0,0,0,0,0,0,0,0,0,0,0.9175,0.9221,0.9093,0.9124,0.9126,0.9055,0.9054,0.9053,0.9125,0.9128,0.9132,0.9135,0.9089,0.9084,0.9079,0.8975,0,0,0.9063,0.9061,0,0,0,0,0,0,0,0,0.9178,0.917,0.912,0.9122,0.9124,0.9099,0.9084,0.9027,0.9124,0.9125,0.9133,0.9137,0.9087,0.9083,0.9067,0.8973,0.8971,0.9063,0.906,0.9057,0.9056,0,0,0,0,0,0,0,0.9181,0.9172,0.9078,0.9119,0.9122,0.9138,0.9135,0.9073,0.9086,0.9125,0.913,0.9125,0.9089,0.9072,0.9067,0.897,0.9063,0.9058,0.9055,0.9053,0.8788,0.8784,0,0,0,0,0,0,0.9181,0.9174,0.9079,0.9077,0.9161,0.9132,0.9129,0.9103,0.9087,0.9088,0.9122,0.9128,0.9079,0.9073,0.9065,0.8942,0.9057,0.9053,0.905,0.8792,0.8787,0.8783,0,0,0,0,0,0,0.9184,0.9172,0.9081,0.9127,0.9117,0.9126,0.9097,0.91,0.9083,0.9085,0.9087,0.9102,0.9082,0.9073,0.8997,0.8941,0.905,0.9046,0.8797,0.8791,0.8785,0.8694,0,0,0,0,0,0,0.9187,0.9173,0.9134,0.9126,0.9114,0.9014,0.9093,0.9097,0.9075,0.9083,0.9067,0.9068,0.9084,0.9005,0.8992,0.8936,0.9041,0.8802,0.8794,0.8787,0.8702,0.8686,0.8672,0,0,0,0,0,0.9192,0.9108,0.9132,0.912,0.9066,0.9011,0.9004,0.9026,0.907,0.9031,0.9032,0.9068,0.895,0.8996,0.8983,0.8924,0.8805,0.8796,0.8788,0.8709,0.8689,0.8672,0,0,0,0,0,0,0.9107,0.9108,0.9134,0.9045,0.9028,0.9023,0.8974,0.9004,0.8972,0.8981,0.9008,0.9004,0.8923,0.8916,0.8968,0.8823,0.8885,0.8873,0.8829,0.8811,0.8796,0.8798,0.9037,0,0,0,0,0,0.9079,0.9036,0.9038,0.896,0.895,0.8963,0.894,0.8959,0.8941,0.8933,0.8929,0.8909,0.8867,0.8839,0.8801,0.8702,0.8699,0.8656,0.864,0.8628,0.8616,0.8564,0.8544,0.8754,0.8754,0.8754,0,0,0.9018,0.9013,0.8984,0.8943,0.8931,0.8884,0.8956,0.8903,0.8869,0.8925,0.8854,0.885,0.8829,0.8742,0.8703,0.8734,0.8558,0.8617,0.8607,0.8602,0.8553,0.8533,0.8515,0.8748,0.8749,0.875,0,0,0.8884,0.8877,0.8811,0.8799,0.8782,0.8792,0.8776,0.8767,0.8767,0.8697,0.8739,0.8697,0.8625,0.8609,0.8591,0.8453,0.8485,0.844,0.836,0.8308,0.8291,0.8277,0.8226,0.8208,0.8429,0.8429,0.8428,0,0.881,0.8743,0.8772,0.8717,0.8698,0.875,0.8682,0.8669,0.8639,0.8623,0.8659,0.8571,0.856,0.847,0.8436,0.8421,0.8402,0.844,0.8292,0.8277,0.8264,0.8216,0.8197,0.8423,0.8424,0.8424,0.8425,0,0.8653,0.8606,0.8555,0.8527,0.8502,0.8441,0.846,0.843,0.8452,0.8458,0.8385,0.8376,0.8336,0.8317,0.8337,0.8229,0.8249,0.8288,0.835,0.8238,0.8194,0.8176,0.8415,0.8417,0.8419,0.842,0,0,0.8461,0.8453,0.8434,0.8422,0.8408,0.8372,0.8313,0.8277,0.8251,0.8229,0.818,0.8119,0.8156,0.8135,0.8154,0.8109,0.7999,0.8154,0.8154,0.8124,0.7879,0.7848,0.7827,0.8022,0.8019,0.8016,0.788,0,0.8327,0.8228,0.8254,0.8154,0.8111,0.8161,0.8109,0.8094,0.8099,0.8061,0.8066,0.8022,0.8074,0.8062,0.802,0.8022,0.795,0.8032,0.7974,0.7971,0.7975,0.7804,0.7771,0.7643,0.7863,0.786,0.7858,0,0.8157,0.8131,0.8028,0.8023,0.8005,0.7959,0.7928,0.7893,0.7877,0.7883,0.7862,0.789,0.7831,0.7897,0.7815,0.787,0.7848,0.7845,0.7841,0.7834,0.7906,0.779,0.7603,0.7583,0.7831,0.7834,0.7835,0,0.8025,0.7965,0.7896,0.7885,0.7877,0.7843,0.7838,0.7826,0.7803,0.7777,0.7762,0.7728,0.7708,0.7681,0.7698,0.7745,0.7613,0.768,0.7615,0.7614,0.7583,0.7584,0.7387,0.7572,0.7572,0.7573,0.7573,0,0.7872,0.7806,0.7837,0.7794,0.7722,0.7752,0.768,0.768,0.767,0.7627,0.7668,0.7626,0.7654,0.7614,0.7628,0.7557,0.7548,0.7551,0.7554,0.7545,0.7545,0.7529,0.7538,0.7568,0.7569,0.757,0.7571,0,0.7711,0.773,0.7657,0.7657,0.7656,0.7602,0.7601,0.7561,0.757,0.7515,0.7504,0.7516,0.7472,0.7488,0.744,0.745,0.7359,0.7376,0.7365,0.7368,0.7302,0.7307,0.7086,0.7058,0.7263,0.7261,0.7259,0,0.7611,0.7562,0.7558,0.7533,0.7526,0.7485,0.7463,0.7491,0.7466,0.7445,0.7407,0.7367,0.7336,0.7263,0.7266,0.723,0.7245,0.717,0.7239,0.7232,0.7241,0.7243,0.7238,0.7155,0.7152,0.7151,0.7149,0,0.743,0.7442,0.741,0.738,0.7353,0.7331,0.7312,0.7289,0.7316,0.7286,0.7242,0.7218,0.7171,0.713,0.7098,0.7091,0.7123,0.7128,0.7111,0.7099,0.7095,0.7095,0.7325,0.7132,0.7134,0.7135,0.7136,0.7136,0.7295,0.7255,0.7246,0.7208,0.7197,0.7179,0.7141,0.7147,0.7112,0.7077,0.7096,0.7044,0.7031,0.6991,0.698,0.694,0.6968,0.6944,0.6937,0.693,0.6921,0.7103,0.6934,0.6935,0.6935,0.6936,0.6936,0,0.7115,0.7113,0.7078,0.7052,0.7022,0.7059,0.7041,0.7013,0.6968,0.6954,0.6923,0.6873,0.6834,0.6836,0.68,0.6767,0.6781,0.6756,0.6758,0.6756,0.6898,0.6916,0.6746,0.6746,0.6746,0.6746,0.6746,0.6746,0.7018,0.6951,0.6962,0.689,0.6888,0.684,0.6826,0.6809,0.6798,0.6741,0.671,0.6712,0.6704,0.6668,0.6634,0.6635,0.6619,0.6588,0.6595,0.6727,0.6746,0.6763,0.678,0.6585,0.6585,0.6456,0.6455,0.6454]}]]